When you browse on this site, cookies collect data to enhance your experience and personalize the content and advertising you see.
Visit our Privacy Policy to learn more. By continuing to use the site, you agree to this use of cookies and data.
  • En España
  • Lista de países
  • Para 7 días
  • Temperatura del agua
  • Mapa Satelital
  • El tiempo en el mapa
  • Informadores
  • user-avatar
    Iniciar sesión

    Tiempo cada hora Canillo

    Hoy, 19 Diciembre, Miércoles

    Tiempo Temperatura Precipitaciones Viento Presión Humedad
    00:00 +1°C° 0 mm 1 mps 618 mmHg 61%
    01:00 +1°C° 0 mm 1 mps 617 mmHg 65%
    02:00 0°C° 0 mm 1 mps 617 mmHg 68%
    03:00 0°C° 0 mm 1 mps 617 mmHg 72%
    04:00 -1°C° 0 mm 1 mps 617 mmHg 75%
    05:00 -1°C° 0 mm 1 mps 616 mmHg 78%
    06:00 -1°C° 0 mm 1 mps 616 mmHg 81%
    07:00 0°C° 0 mm 1 mps 617 mmHg 78%
    08:00 0°C° 0 mm 1 mps 617 mmHg 76%
    09:00 +1°C° 0 mm 1 mps 618 mmHg 74%
    10:00 +2°C° 0 mm 1 mps 618 mmHg 67%
    11:00 +2°C° 0 mm 2 mps 618 mmHg 60%
    12:00 +4°C° 0 mm 2 mps 619 mmHg 54%
    13:00 +3°C° 0.2 mm 2 mps 619 mmHg 58%
    14:00 +3°C° 0.2 mm 2 mps 619 mmHg 63%
    15:00 +2°C° 0.2 mm 2 mps 618 mmHg 67%
    16:00 +1°C° 0 mm 2 mps 618 mmHg 73%
    17:00 -2°C° 0 mm 2 mps 618 mmHg 79%
    18:00 -3°C° 0 mm 2 mps 618 mmHg 85%
    19:00 -3°C° 0 mm 2 mps 618 mmHg 84%
    20:00 -4°C° 0 mm 2 mps 618 mmHg 82%
    21:00 -4°C° 0 mm 2 mps 618 mmHg 81%
    22:00 -2°C° 0 mm 1 mps 618 mmHg 79%
    23:00 -2°C° 0 mm 1 mps 619 mmHg 76%

    Mañana, 20 Diciembre, Jueves

    Tiempo Temperatura Precipitaciones Viento Presión Humedad
    00:00 -2°C° 0 mm 1 mps 619 mmHg 74%
    01:00 -2°C° 0 mm 1 mps 619 mmHg 73%
    02:00 -2°C° 0 mm 1 mps 619 mmHg 73%
    03:00 -2°C° 0 mm 1 mps 619 mmHg 72%
    04:00 -2°C° 0 mm 1 mps 619 mmHg 73%
    05:00 -2°C° 0 mm 1 mps 619 mmHg 74%
    06:00 -2°C° 0 mm 1 mps 620 mmHg 75%
    07:00 -1°C° 0 mm 1 mps 620 mmHg 74%
    08:00 -1°C° 0 mm 1 mps 621 mmHg 72%
    09:00 0°C° 0 mm 1 mps 621 mmHg 70%
    10:00 +1°C° 0 mm 1 mps 622 mmHg 65%
    11:00 +3°C° 0 mm 1 mps 622 mmHg 59%
    12:00 +4°C° 0 mm 1 mps 623 mmHg 53%
    13:00 +4°C° 0 mm 1 mps 623 mmHg 56%
    14:00 +4°C° 0 mm 1 mps 623 mmHg 59%
    15:00 +3°C° 0 mm 1 mps 623 mmHg 62%
    16:00 +2°C° 0 mm 1 mps 622 mmHg 67%
    17:00 0°C° 0 mm 1 mps 622 mmHg 73%
    18:00 -1°C° 0 mm 1 mps 622 mmHg 79%
    19:00 -1°C° 0 mm 1 mps 622 mmHg 77%
    20:00 -2°C° 0 mm 1 mps 622 mmHg 75%
    21:00 -2°C° 0 mm 1 mps 622 mmHg 73%
    22:00 -2°C° 0 mm 1 mps 622 mmHg 72%
    23:00 -2°C° 0 mm 1 mps 622 mmHg 71%

    Pasado mañana, 21 Diciembre, Viernes

    Tiempo Temperatura Precipitaciones Viento Presión Humedad
    00:00 -1°C° 0 mm 1 mps 622 mmHg 70%
    01:00 -1°C° 0 mm 1 mps 622 mmHg 70%
    02:00 -1°C° 0 mm 1 mps 622 mmHg 70%
    03:00 -1°C° 0 mm 1 mps 622 mmHg 71%
    04:00 -1°C° 0 mm 1 mps 622 mmHg 70%
    05:00 -1°C° 0 mm 1 mps 622 mmHg 70%
    06:00 -1°C° 0 mm 1 mps 622 mmHg 69%
    07:00 +1°C° 0 mm 1 mps 623 mmHg 65%
    08:00 +2°C° 0 mm 1 mps 623 mmHg 62%
    09:00 +3°C° 0 mm 1 mps 624 mmHg 58%
    10:00 +5°C° 0 mm 1 mps 625 mmHg 54%
    11:00 +6°C° 0 mm 1 mps 625 mmHg 51%
    12:00 +8°C° 0 mm 1 mps 626 mmHg 47%
    13:00 +7°C° 0 mm 1 mps 625 mmHg 51%
    14:00 +7°C° 0 mm 1 mps 625 mmHg 56%
    15:00 +6°C° 0 mm 1 mps 624 mmHg 60%
    16:00 +5°C° 0 mm 1 mps 624 mmHg 63%
    17:00 +4°C° 0 mm 1 mps 624 mmHg 66%
    18:00 +2°C° 0 mm 1 mps 623 mmHg 69%
    19:00 +2°C° 0 mm 1 mps 623 mmHg 68%
    20:00 +2°C° 0 mm 1 mps 623 mmHg 66%
    21:00 +2°C° 0 mm 1 mps 623 mmHg 64%
    22:00 +2°C° 0 mm 1 mps 623 mmHg 64%
    23:00 +2°C° 0 mm 1 mps 623 mmHg 63%

    22 Diciembre, Sábado

    Tiempo Temperatura Precipitaciones Viento Presión Humedad
    00:00 +2°C° 0 mm 1 mps 623 mmHg 62%
    01:00 +2°C° 0 mm 1 mps 623 mmHg 63%
    02:00 +2°C° 0 mm 1 mps 623 mmHg 65%
    03:00 +1°C° 0 mm 2 mps 623 mmHg 66%
    04:00 +1°C° 0 mm 2 mps 623 mmHg 68%
    05:00 +1°C° 0 mm 2 mps 623 mmHg 71%
    06:00 +1°C° 0 mm 2 mps 623 mmHg 73%
    07:00 +2°C° 0 mm 2 mps 624 mmHg 72%
    08:00 +3°C° 0 mm 2 mps 624 mmHg 71%
    09:00 +5°C° 0 mm 1 mps 625 mmHg 70%
    10:00 +7°C° 0 mm 1 mps 626 mmHg 66%
    11:00 +8°C° 0 mm 1 mps 626 mmHg 62%
    12:00 +10°C° 0 mm 1 mps 627 mmHg 57%
    13:00 +9°C° 0 mm 1 mps 626 mmHg 61%
    14:00 +9°C° 0 mm 1 mps 626 mmHg 65%
    15:00 +8°C° 0 mm 1 mps 625 mmHg 68%
    16:00 +6°C° 0 mm 1 mps 625 mmHg 72%
    17:00 +5°C° 0 mm 1 mps 624 mmHg 77%
    18:00 +3°C° 0 mm 1 mps 624 mmHg 81%
    19:00 +3°C° 0 mm 1 mps 624 mmHg 80%
    20:00 +3°C° 0 mm 1 mps 624 mmHg 78%
    21:00 +3°C° 0 mm 1 mps 624 mmHg 77%
    22:00 +3°C° 0 mm 1 mps 624 mmHg 76%
    23:00 +3°C° 0 mm 1 mps 624 mmHg 75%

    23 Diciembre, Domingo

    Tiempo Temperatura Precipitaciones Viento Presión Humedad
    00:00 +2°C° 0 mm 1 mps 624 mmHg 74%
    01:00 +2°C° 0 mm 1 mps 623 mmHg 72%
    02:00 +2°C° 0 mm 1 mps 623 mmHg 71%
    03:00 +2°C° 0 mm 1 mps 623 mmHg 70%
    04:00 +2°C° 0 mm 1 mps 623 mmHg 69%
    05:00 +2°C° 0 mm 1 mps 623 mmHg 68%
    06:00 +2°C° 0 mm 1 mps 623 mmHg 67%
    07:00 +3°C° 0 mm 1 mps 624 mmHg 65%
    08:00 +4°C° 0 mm 1 mps 624 mmHg 62%
    09:00 +5°C° 0 mm 1 mps 625 mmHg 60%
    10:00 +7°C° 0 mm 1 mps 625 mmHg 57%
    11:00 +8°C° 0 mm 1 mps 626 mmHg 53%
    12:00 +10°C° 0 mm 1 mps 626 mmHg 50%
    13:00 +9°C° 0 mm 1 mps 626 mmHg 54%
    14:00 +9°C° 0 mm 1 mps 625 mmHg 57%
    15:00 +8°C° 0 mm 1 mps 625 mmHg 61%
    16:00 +7°C° 0 mm 1 mps 624 mmHg 63%
    17:00 +5°C° 0 mm 1 mps 624 mmHg 65%
    18:00 +4°C° 0 mm 1 mps 623 mmHg 67%
    19:00 +4°C° 0 mm 1 mps 623 mmHg 64%
    20:00 +4°C° 0 mm 1 mps 623 mmHg 61%
    21:00 +4°C° 0 mm 1 mps 624 mmHg 58%
    22:00 +4°C° 0 mm 1 mps 624 mmHg 55%
    23:00 +4°C° 0 mm 1 mps 623 mmHg 53%

    24 Diciembre, Lunes

    Tiempo Temperatura Precipitaciones Viento Presión Humedad
    00:00 +4°C° 0 mm 1 mps 623 mmHg 50%
    01:00 +3°C° 0 mm 1 mps 623 mmHg 49%
    02:00 +3°C° 0 mm 1 mps 623 mmHg 47%
    03:00 +3°C° 0 mm 1 mps 623 mmHg 45%
    04:00 +3°C° 0 mm 1 mps 623 mmHg 45%
    05:00 +3°C° 0 mm 1 mps 623 mmHg 44%
    06:00 +3°C° 0 mm 1 mps 623 mmHg 43%
    07:00 +4°C° 0 mm 1 mps 623 mmHg 43%
    08:00 +5°C° 0 mm 1 mps 624 mmHg 44%
    09:00 +6°C° 0 mm 1 mps 624 mmHg 44%
    10:00 +8°C° 0 mm 1 mps 625 mmHg 42%
    11:00 +10°C° 0 mm 1 mps 625 mmHg 40%
    12:00 +12°C° 0 mm 1 mps 626 mmHg 38%
    13:00 +11°C° 0 mm 1 mps 625 mmHg 43%
    14:00 +10°C° 0 mm 1 mps 625 mmHg 48%
    15:00 +9°C° 0 mm 1 mps 624 mmHg 53%
    16:00 +8°C° 0 mm 1 mps 624 mmHg 54%
    17:00 +6°C° 0 mm 1 mps 623 mmHg 56%
    18:00 +4°C° 0 mm 1 mps 622 mmHg 57%
    19:00 +4°C° 0 mm 1 mps 622 mmHg 54%
    20:00 +4°C° 0 mm 1 mps 622 mmHg 51%
    21:00 +4°C° 0 mm 1 mps 622 mmHg 48%
    22:00 +4°C° 0 mm 1 mps 622 mmHg 47%
    23:00 +4°C° 0 mm 1 mps 622 mmHg 46%
    Mostrar más